TimePDT,TemperatureF,Dew PointF,Humidity,Sea Level PressureIn,VisibilityMPH,Wind Direction,Wind SpeedMPH,Gust SpeedMPH,PrecipitationIn,Events,Conditions,WindDirDegrees,DateUTC
12:53 AM,60.1,55.9,86,29.97,8.0,Calm,Calm,-,N/A,,Clear,0,2013-04-21 07:53:00
1:53 AM,61.0,57.0,87,29.97,8.0,Calm,Calm,-,N/A,,Clear,0,2013-04-21 08:53:00
2:00 AM,60.8,57.2,88,29.96,7.0,Variable,3.5,-,N/A,,Scattered Clouds,0,2013-04-21 09:00:00
2:08 AM,60.8,57.2,88,29.96,7.0,SSE,3.5,-,N/A,,Mostly Cloudy,160,2013-04-21 09:08:00
2:41 AM,59.0,57.2,94,29.95,1.8,South,3.5,-,N/A,,Overcast,180,2013-04-21 09:41:00
2:53 AM,59.0,57.0,93,29.95,1.2,South,3.5,-,N/A,,Overcast,170,2013-04-21 09:53:00
2:59 AM,59.0,57.2,94,29.95,2.0,Calm,Calm,-,N/A,,Overcast,0,2013-04-21 09:59:00
3:14 AM,57.2,57.2,100,29.95,1.2,SSE,3.5,-,N/A,,Overcast,150,2013-04-21 10:14:00
3:37 AM,57.2,57.2,100,29.95,0.8,South,3.5,-,N/A,,Mist,170,2013-04-21 10:37:00
3:53 AM,57.0,55.9,96,29.95,2.0,SSE,5.8,-,N/A,,Overcast,150,2013-04-21 10:53:00
4:02 AM,57.2,55.4,94,29.95,4.0,South,4.6,-,N/A,,Overcast,170,2013-04-21 11:02:00
4:53 AM,57.0,55.0,93,29.96,6.0,ESE,3.5,-,N/A,,Overcast,120,2013-04-21 11:53:00
5:49 AM,57.2,55.4,94,29.96,2.5,East,3.5,-,N/A,,Overcast,100,2013-04-21 12:49:00
5:53 AM,57.0,55.0,93,29.96,3.0,ESE,3.5,-,N/A,,Overcast,120,2013-04-21 12:53:00
6:16 AM,57.2,55.4,94,29.96,2.0,Calm,Calm,-,N/A,,Overcast,0,2013-04-21 13:16:00
6:53 AM,57.0,55.0,93,29.98,0.8,Calm,Calm,-,N/A,,Overcast,0,2013-04-21 13:53:00
7:00 AM,57.2,55.4,94,29.98,1.0,Calm,Calm,-,N/A,,Overcast,0,2013-04-21 14:00:00
7:53 AM,59.0,55.9,90,29.99,1.0,Calm,Calm,-,N/A,,Overcast,0,2013-04-21 14:53:00
8:48 AM,60.8,55.4,82,29.99,5.0,Calm,Calm,-,N/A,,Haze,0,2013-04-21 15:48:00
8:53 AM,61.0,55.9,83,29.99,5.0,Calm,Calm,-,N/A,,Haze,0,2013-04-21 15:53:00
9:53 AM,64.0,55.0,73,30.01,7.0,South,5.8,-,N/A,,Clear,180,2013-04-21 16:53:00
10:53 AM,64.9,54.0,68,30.01,9.0,SSW,6.9,-,N/A,,Clear,210,2013-04-21 17:53:00
11:53 AM,69.1,54.0,58,30.01,9.0,SSW,6.9,-,N/A,,Clear,210,2013-04-21 18:53:00
12:53 PM,68.0,54.0,61,30.00,9.0,Variable,5.8,-,N/A,,Clear,0,2013-04-21 19:53:00
1:53 PM,71.1,52.0,51,29.98,10.0,South,6.9,-,N/A,,Clear,190,2013-04-21 20:53:00
2:53 PM,70.0,51.1,51,29.97,10.0,SSW,9.2,-,N/A,,Clear,210,2013-04-21 21:53:00
3:53 PM,69.1,52.0,54,29.95,10.0,SSW,8.1,16.1,N/A,,Clear,200,2013-04-21 22:53:00
4:53 PM,66.9,54.0,63,29.95,10.0,SSE,9.2,-,N/A,,Clear,160,2013-04-21 23:53:00
5:53 PM,64.0,55.0,73,29.95,9.0,SSE,10.4,-,N/A,,Clear,160,2013-04-22 00:53:00
6:53 PM,62.1,55.0,78,29.96,8.0,SSE,8.1,-,N/A,,Clear,160,2013-04-22 01:53:00
6:58 PM,62.6,55.4,77,29.96,8.0,South,6.9,-,N/A,,Scattered Clouds,170,2013-04-22 01:58:00
7:10 PM,60.8,55.4,82,29.96,8.0,SSE,6.9,-,N/A,,Scattered Clouds,160,2013-04-22 02:10:00
7:53 PM,60.1,55.0,83,29.98,8.0,SSE,6.9,-,N/A,,Mostly Cloudy,160,2013-04-22 02:53:00
8:53 PM,60.1,55.0,83,30.00,9.0,South,5.8,-,N/A,,Overcast,170,2013-04-22 03:53:00
9:29 PM,60.8,53.6,77,30.01,9.0,South,4.6,-,N/A,,Overcast,190,2013-04-22 04:29:00
9:53 PM,59.0,53.1,81,30.02,9.0,South,5.8,-,N/A,,Mostly Cloudy,180,2013-04-22 04:53:00
10:53 PM,59.0,53.1,81,30.01,9.0,SE,4.6,-,N/A,,Overcast,140,2013-04-22 05:53:00
11:53 PM,59.0,53.1,81,30.01,9.0,SSE,5.8,-,N/A,,Overcast,150,2013-04-22 06:53:00